Preview of NWS' New Version of Forecast
This preview is not operational and should not be used for support decisions.

Regional Weather Roundup (RWR)

Issued by National Weather Service (NWS)

                            
000
ASUS44 KJAN 180910
RWRMS 

MISSISSIPPI HOURLY WEATHER ROUNDUP
NATIONAL WEATHER SERVICE JACKSON MS
300 AM CST MON FEB 18 2019

NOTE: "FAIR: INDICATES FEW OR NO CLOUDS BELOW 12,000 FEET WITH NO
SIGNIFICANT WEATHER AND/OR OBSTRUCTIONS TO VISIBILITY.

MSZ001>002-007>008-010>013-018>021-025>028-034>036-181000-
NORTHWEST MISSISSIPPI
  
CITY           SKY/WX    TMP DP  RH WIND       PRES   REMARKS
BATESVILLE     FAIR      36  30  80 N7        30.18R WCI  30          
CLARKSDALE     CLOUDY    36  30  80 N8        30.21R WCI  29          
CLEVELAND      FAIR      38  31  77 N16       30.19S WCI  28          
GREENWOOD      FAIR      37  33  85 N8        30.17R WCI  31          
GREENVILLE     FAIR      39  31  72 N17       30.17S WCI  30          
OLIVE BRANCH   CLEAR     32  27  80 N14       30.18R HAZE    WCI  22  
OXFORD         FAIR      34  30  86 N7        30.18R WCI  28          
TUNICA           N/A     32  27  80 N13       30.22R WCI  22          
WINONA         FAIR      35  33  91 N7        30.15S WCI  29          
$$

MSZ003>006-009-014>017-022>024-029>033-037>039-181000-
NORTHEAST MISSISSIPPI
  
CITY           SKY/WX    TMP DP  RH WIND       PRES   REMARKS
ABERDEEN       CLOUDY    39  39 100 NW13      30.16R WCI  32          
COLUMBUS AFB   CLOUDY    41  36  84 N10       30.12R                  
CORINTH        FAIR      37  30  75 NW13      30.15R WCI  29          
GOLDN TRIANGLE MOCLDY    40  37  89 N14G21    30.13R WCI  32          
STARKVILLE     CLOUDY    37  36  93 N6        30.15R WCI  33          
TUPELO         FAIR      36  32  85 N7        30.15R WCI  30          
$$

MSZ040-058-181000-
CENTRAL MISSISSIPPI
  
CITY           SKY/WX    TMP DP  RH WIND       PRES   REMARKS
JACKSON INTL   CLOUDY    42  34  73 N17G25    30.12R                  
JACKSON HAWKNS FAIR       1 N/A N/A N10G20    30.12R WCI -15          
MADISON        FAIR      37  36  93 N5        30.12R WCI  34          
MERIDIAN KEY   CLOUDY   N/A N/A N/A N10       30.08R                  
MERIDIAN NAS   CLOUDY    46  42  86 N13G20    30.09R                  
RAYMOND          N/A     41  41 100 VRB6      30.13R                  
VICKSBURG VKS  CLOUDY    45  41  87 NE9G20    30.14R                  
$$

MSZ059>079-181000-
SOUTH MISSISSIPPI
  
CITY           SKY/WX    TMP DP  RH WIND       PRES   REMARKS
HATTIESBURG    CLOUDY    52  45  77 N10       30.04R                  
LAUREL         CLOUDY    49  40  69 N10G16    30.06R                  
MCCOMB         CLOUDY    49  40  71 N10G20    30.05R                  
NATCHEZ        MOCLDY    43  40  89 NE9       30.12R                  
PINE BELT      CLOUDY    48  46  93 N10       30.07R                  
$$

MSZ080>082-181000-
COASTAL MISSISSIPPI
  
CITY           SKY/WX    TMP DP  RH WIND       PRES   REMARKS
BILOXI         CLOUDY    57  54  88 NE14      29.97R                  
PASCAGOULA     CLOUDY    59  52  77 N12G22    29.96F                  
GULFPORT       CLOUDY    57  52  83 N13       29.96F                  
$$

LAZ007>009-015>016-023>026-181000-
NORTHEAST LOUISIANA
  
CITY           SKY/WX    TMP DP  RH WIND       PRES   REMARKS
BASTROP        FAIR      39  38  97 N5        30.18R                  
TALLULAH/VBURG MOCLDY    43  39  86 NE10      30.15R                  
VIDALIA        PTSUNNY   43  40  89 N12       30.11R                  
$$